Location: アルンシュタイン
(50.0000°N, 10.0000°E)
Time: 10:06:22
(UTC+01:00)

Envisat - Pass Details

Date: 26 September 2023
Orbit: 762 x 764 km, 98.3° (Epoch: 07 December)

Event Time Altitude Azimuth Distance (km) Brightness Sun altitude
Rises 04:08:58 0° 23° (NNE) 3,244 7.1 -28.3°
Reaches altitude 10° 04:11:38 10° 35° (NE) 2,313 6.4 -28.0°
Maximum altitude 04:15:55 27° 93° (E) 1,446 4.8 -27.4°
Enters shadow 04:19:58 11° 149° (SSE) 2,225 5.3 -26.9°
